Location: Mohawk View
(42.7837°N, 73.7885°W)
Time: 09:16:50
(UTC+00:00)

Meteor 1-24 Rocket - Pass Details

Date: 26 October 2021
Orbit: 790 x 927 km, 81.3° (Epoch: 27 November)

Event Time Altitude Azimuth Distance (km) Brightness Sun altitude
Rises 22:56:46 0° 327° (NNW) 3,513 7.3 -11.9°
Reaches altitude 10° 23:02:00 10° 287° (WNW) 2,599 7.4 -12.8°
Maximum altitude 23:02:45 10° 280° (W) 2,584 7.5 -12.9°
Drops below altitude 10° 23:03:30 10° 272° (W) 2,604 7.7 -13.1°
Sets 23:08:48 0° 233° (SW) 3,559 8.0 -14.1°
